Location: Killam
(52.7910°N, 111.8608°W)
Time: 23:11:42
(UTC+00:00)

Vanguard 3 - Pass Details

Date: 21 February 2026
Orbit: 507 x 3205 km, 33.4° (Epoch: 11 March)

Event Time Altitude Azimuth Distance (km) Brightness Sun altitude
Rises 01:44:08 0° 247° (WSW) 4,692 12.7 -8.9°
Reaches altitude 10° 01:50:06 10° 221° (SW) 3,019 10.8 -9.8°
Maximum altitude 01:52:31 12° 201° (SSW) 2,605 10.1 -10.1°
Drops below altitude 10° 01:54:36 10° 180° (S) 2,513 9.7 -10.5°
Sets 01:58:24 0° 147° (SSE) 3,055 9.8 -11.0°
